Regional Weather Roundup
Issued by NWS

Home | Current Version | Previous Version | Graphics & Text | Print | Product List | Glossary On
Versions: 1 2 3 4 5 6 7 8 9 10 11 12 13 14 15 16 17 18 19 20 21 22 23 24 25 26 27 28 29 30 31 32 33 34 35 36 37 38 39 40 41 42 43 44 45 46 47 48 49 50
000
ASUS43 KDMX 230106
RWRIA

WEATHER ROUNDUP FOR IOWA
NATIONAL WEATHER SERVICE DES MOINES IA
700 PM CST WED FEB 22 2017

NOTE: "FAIR" INDICATES FEW OR NO CLOUDS BELOW 12,000 FEET WITH NO
SIGNIFICANT WEATHER AND/OR OBSTRUCTIONS TO VISIBILITY.

* - THESE STATIONS ARE NOT NWS STATIONS...THUS NOT UNDER NWS
QUALITY CONTROL.  THEY ALSO DO NOT REPORT WEATHER SUCH
AS PRECIPITATION OR FOG.

IAZ001>003-012>014-020>022-031>034-043>046-230200-
   NORTHWEST IOWA

CITY           SKY/WX    TMP DP  RH WIND       PRES   REMARKS
CARROLL *      CLEAR     54  41  62 NW13      29.70R
CHEROKEE *     CLEAR     50  41  71 NW8       29.75R
DENISON *      CLEAR     54  39  58 NW9       29.71R
LE MARS *      CLEAR     50  41  71 N9        29.77R
ORANGE CITY *  CLEAR     48  43  81 NW13      29.76R
SHELDON *      CLOUDY    48  46  93 NW20G25   29.73R
SIOUX CITY     CLEAR     54  41  61 N13       29.75R
SPENCER        CLEAR     48  43  82 W15       29.72R
STORM LAKE *   CLEAR     50  41  71 NW21G28   29.72R
$$

IAZ055>058-069>071-079>083-090>094-230200-
   SOUTHWEST IOWA

CITY           SKY/WX    TMP DP  RH WIND       PRES   REMARKS
ATLANTIC *     CLEAR     52  41  66 NW8       29.71R
CLARINDA *     CLEAR     57  41  54 N6        29.71R
COUNCIL BLFS * CLEAR     59  37  44 NW10      29.72R
CRESTON *      CLEAR     55  41  58 NW9       29.71R
HARLAN  *      CLEAR     52  37  58 NW14      29.75R
LAMONI         CLEAR     61  38  42 NW6       29.68R
RED OAK *      CLEAR     61  39  44 N9        29.71R
SHENANDOAH *   CLEAR     61  39  44 N10       29.70R
$$

IAZ047>049-059>061-072>074-084-230200-
   CENTRAL IOWA

CITY           SKY/WX    TMP DP  RH WIND       PRES   REMARKS
AMES           CLEAR     53  47  79 W7        29.66R
ANKENY *       CLEAR     61  45  55 NW9       29.67R
BOONE *        CLEAR     59  45  58 W12       29.67R
CHARITON *     CLEAR     63  39  42 W3        29.66R
DES MOINES     PTCLDY    64  43  46 NW8       29.67R
GRINNELL*      CLEAR     57  42  56 SW8       29.65R
KNOXVILLE *    CLEAR     63  39  42 W7        29.64S
MARSHALLTOWN   CLEAR     54  45  71 W6        29.63R
NEWTON *       CLEAR     55  41  58 W8        29.65R
PELLA *        CLEAR     60  39  46 W3        29.66R
PERRY *          N/A     56  41  58 W10       29.68R
$$

IAZ004>006-015-016-023>025-035-036-230200-
   NORTH CENTRAL IOWA

CITY           SKY/WX    TMP DP  RH WIND       PRES   REMARKS
ALGONA *       CLEAR     52  45  76 NW17G23   29.68R
CLARION *      CLEAR     52  48  87 W8        29.65R
ESTHERVILLE    CLEAR     44  42  93 NW24      29.70R
FORT DODGE *   CLEAR     54  39  58 NW10      29.68R
MASON CITY     CLEAR     50  45  83 W8        29.64R
FOREST CITY *    N/A     50  43  76 NW18G25   29.65R
WEBSTER CITY * CLEAR     54  45  71 W10       29.65R
IOWA FALLS *     N/A     51  47  86 W5        29.65R
$$

IAZ007>011-017>019-026>030-037>042-050>054-066-230200-
   NORTHEAST IOWA

CITY           SKY/WX    TMP DP  RH WIND       PRES   REMARKS
CEDAR RAPIDS   CLEAR     52  42  69 W9        29.61R
CHARLES CITY * CLEAR     50  48  93 W8        29.62R
CLINTON *      CLEAR     60  50  69 SW14      29.59R
DECORAH *      CLEAR     52  45  76 W5        29.58R
DUBUQUE        CLEAR     58  44  60 W12       29.59R
MONTICELLO *   CLEAR     57  45  62 W12       29.60R
OELWEIN *      CLEAR     50  46  87 W8        29.61R
WATERLOO       CLEAR     54  44  69 NW6       29.61R
$$

IAZ064-065-067-068-078-230200-
   EAST CENTRAL IOWA

CITY           SKY/WX    TMP DP  RH WIND       PRES   REMARKS
DAVENPORT      CLEAR     64  50  60 S15       29.60R
IOWA CITY      CLEAR     62  40  44 W13       29.63R
MUSCATINE *    CLEAR     63  52  67 SW12      29.63R
QUAD CITIES    CLEAR     64  50  60 S14       29.59R
$$

IAZ062-063-075>077-085>089-095>099-230200-
   SOUTHEAST IOWA

CITY           SKY/WX    TMP DP  RH WIND       PRES   REMARKS
BURLINGTON     CLEAR     60  53  77 S17       29.63R
FAIRFIELD *    CLEAR     61  36  39 W6        29.64R
KEOKUK *       CLEAR     61  54  77 S10       29.64R
OTTUMWA        CLEAR     59  36  42 NW10      29.65R
WASHINGTON *   CLEAR     61  39  44 NW15      29.64R
$$

ABBREVIATIONS USED IN REMARKS
   TC - TEMPERATURES IN CELSIUS
  WCI - WIND CHILL INDEX
   HX - HEAT INDEX
  VSB - VISIBILITY
$$





USA.gov is the U.S. government's official web portal to all federal, state and local government web resources and services.